Le nostre stazioni meteo in Italia

Pubblicità
Il mio iltempo24.it
Geneve-Cointrin, Svizzera (6700): Temperatura & dewpoint: 17.05.2017 16:00:00 - 23.05.2017 16:00:00 (CEST)Geneve-Cointrin, Svizzera (6700): Temperatura 5cm: 17.05.2017 16:00:00 - 23.05.2017 16:00:00 (CEST)Geneve-Cointrin, Svizzera (6700): velocità del vento & gusts: 17.05.2017 16:00:00 - 23.05.2017 16:00:00 (CEST)Geneve-Cointrin, Svizzera (6700): direzione del vento: 17.05.2017 16:00:00 - 23.05.2017 16:00:00 (CEST)Geneve-Cointrin, Svizzera (6700): reduced air pressure: 17.05.2017 16:00:00 - 23.05.2017 16:00:00 (CEST)Geneve-Cointrin, Svizzera (6700): visibility: 17.05.2017 16:00:00 - 23.05.2017 16:00:00 (CEST)Geneve-Cointrin, Svizzera (6700): ore di luce: 17.05.2017 16:00:00 - 23.05.2017 16:00:00 (CEST)Geneve-Cointrin, Svizzera (6700): precipitazioni: 17.05.2017 16:00:00 - 23.05.2017 16:00:00 (CEST)
Data & Tempo tt [°C] td [°C] tt 5cm [°C] ff [km/h] ff [kn] fx [km/h] fx [kn] dd ppp [hPa] vv [km] sd [min] rr [mm]
23.05.2017 16:00:00 25,1 10,3 31,5 10 6 22 12 ENE 1018,3 - 59 0,0
23.05.2017 15:00:00 24,8 8,8 32,4 10 5 20 11 ENE 1018,6 - 60 0,0
23.05.2017 14:00:00 24,1 9,9 31,9 9 5 14 8 ENE 1019,1 60 60 0,0
23.05.2017 13:00:00 22,6 10,7 31,2 10 5 15 8 E 1019,6 - 60 0,0
23.05.2017 12:00:00 21,8 10,1 30,4 8 4 16 8 ENE 1020,0 - 60 0,0
23.05.2017 11:00:00 20,1 10,1 27,5 3 2 10 5 SO 1020,2 60 55 0,0
23.05.2017 10:00:00 19,2 9,9 28,4 3 1 10 5 OSO 1020,5 - 60 0,0
23.05.2017 09:00:00 17,6 9,3 23,5 2 1 6 4 S 1020,7 - 60 0,0
23.05.2017 08:00:00 14,6 9,3 15,3 2 1 6 4 O 1020,9 50 23 0,0
23.05.2017 07:00:00 12,5 9,2 11,8 1 1 6 4 NO 1020,9 - 0 0,0
23.05.2017 06:00:00 10,9 8,3 7,2 1 1 6 3 ENE 1020,6 - 0 0,0
23.05.2017 05:00:00 11,0 8,6 7,1 2 1 6 4 SSO 1020,2 - 0 0,0
23.05.2017 04:00:00 10,7 8,8 6,7 2 1 7 4 NE 1020,1 - 0 0,0
23.05.2017 03:00:00 11,1 9,0 6,8 3 2 6 3 NNE 1020,1 - 0 0,0
23.05.2017 02:00:00 11,6 9,1 7,2 5 3 9 5 ONO 1019,8 - 0 0,0
23.05.2017 01:00:00 13,1 9,3 8,3 3 1 5 3 SO 1019,3 - 0 0,0
23.05.2017 00:00:00 14,0 9,2 8,4 1 0 7 4 SO 1018,8 - 0 0,0
22.05.2017 23:00:00 15,3 9,4 9,4 1 1 9 5 NNE 1017,9 60 0 0,0
22.05.2017 22:00:00 18,2 8,7 12,8 8 5 11 6 SO 1016,8 - 0 0,0
22.05.2017 21:00:00 20,0 8,3 16,0 9 5 22 12 O 1016,1 - 33 0,0
22.05.2017 20:00:00 23,5 6,9 21,5 16 8 28 15 SO 1015,4 50 60 0,0
22.05.2017 19:00:00 25,1 7,2 26,3 21 12 32 18 SO 1015,0 - 60 0,0
22.05.2017 18:00:00 25,7 7,2 27,7 16 9 29 16 SO 1014,8 - 60 0,0
22.05.2017 17:00:00 25,3 8,1 30,0 18 10 29 15 SO 1015,2 60 60 0,0
22.05.2017 16:00:00 25,3 6,8 30,2 16 9 32 17 SO 1015,4 - 60 0,0
22.05.2017 15:00:00 25,3 7,4 31,5 21 11 36 19 SSO 1015,7 - 60 0,0
22.05.2017 14:00:00 24,2 11,2 32,3 11 6 24 13 SSO 1016,4 60 60 0,0
22.05.2017 13:00:00 20,6 9,5 29,5 6 3 16 8 ESE 1017,6 - 60 0,0
22.05.2017 12:00:00 19,1 9,2 30,2 4 2 13 7 ESE 1018,4 - 60 0,0
22.05.2017 11:00:00 17,6 8,9 28,2 6 3 14 8 NE 1018,9 60 60 0,0
22.05.2017 10:00:00 16,2 7,8 25,3 5 3 13 7 ENE 1019,4 - 60 0,0
22.05.2017 09:00:00 14,5 10,3 22,8 1 1 6 3 N 1019,7 - 60 0,0
22.05.2017 08:00:00 12,3 9,8 14,4 3 2 5 3 N 1020,2 60 60 0,0
22.05.2017 07:00:00 9,8 8,2 9,7 3 2 5 3 NO 1020,5 - 25 0,0
22.05.2017 06:00:00 8,0 7,4 4,7 2 1 5 3 NO 1020,8 - 0 0,0
22.05.2017 05:00:00 8,5 7,5 4,7 1 1 4 2 O 1020,6 - 0 0,0
22.05.2017 04:00:00 8,6 7,8 4,9 3 2 6 3 NO 1020,5 - 0 0,0
22.05.2017 03:00:00 9,1 8,0 5,7 3 2 5 3 NO 1020,7 - 0 0,0
22.05.2017 02:00:00 10,0 8,5 5,5 2 1 6 3 NNE 1020,8 - 0 0,0
22.05.2017 01:00:00 10,6 8,7 6,4 1 1 4 2 O 1021,0 - 0 0,0
22.05.2017 00:00:00 11,5 8,8 7,4 4 2 8 5 O 1021,2 - 0 0,0
21.05.2017 23:00:00 12,4 9,2 7,5 1 1 5 3 ONO 1021,2 50 0 0,0
21.05.2017 22:00:00 14,3 9,2 8,8 1 1 8 5 O 1020,6 - 0 0,0
21.05.2017 21:00:00 16,3 8,9 11,7 3 2 7 4 NNO 1020,1 - 28 0,0
21.05.2017 20:00:00 19,2 7,8 18,9 5 3 13 7 NNE 1019,6 50 60 0,0
21.05.2017 19:00:00 19,7 7,0 23,8 8 4 16 9 NNE 1019,7 - 60 0,0
21.05.2017 18:00:00 20,3 8,0 24,5 9 5 19 10 NE 1020,1 - 60 0,0
21.05.2017 17:00:00 20,1 8,5 27,1 13 7 22 12 NNE 1020,6 50 60 0,0
21.05.2017 16:00:00 19,2 7,1 27,0 12 6 24 13 NE 1021,3 - 60 0,0
21.05.2017 15:00:00 18,9 5,6 26,8 13 7 25 14 NE 1021,9 - 60 0,0
21.05.2017 14:00:00 18,2 8,5 25,6 17 9 34 18 NE 1022,6 50 60 0,0
21.05.2017 13:00:00 17,4 8,1 24,4 18 10 37 20 NE 1023,1 - 60 0,0
21.05.2017 12:00:00 16,3 8,6 23,1 18 10 30 16 NE 1023,8 - 60 0,0
21.05.2017 11:00:00 14,7 8,4 22,6 15 8 27 14 ENE 1024,5 50 60 0,0
21.05.2017 10:00:00 13,3 7,2 21,7 11 6 21 11 NE 1025,1 - 60 0,0
21.05.2017 09:00:00 11,6 7,2 18,9 7 4 16 9 ENE 1025,4 - 60 0,0
21.05.2017 08:00:00 10,6 7,2 12,7 2 1 8 4 NE 1025,4 75 60 0,0
21.05.2017 07:00:00 6,9 5,6 6,3 1 1 5 3 ONO 1025,9 - 25 0,0
21.05.2017 06:00:00 5,7 4,7 2,4 3 1 5 3 O 1025,9 - 0 0,0
21.05.2017 05:00:00 5,7 4,8 2,0 2 1 7 4 NNO 1026,0 - 0 0,0
21.05.2017 04:00:00 5,8 5,0 2,7 1 1 6 3 NNO 1026,4 - 0 0,0
21.05.2017 03:00:00 6,7 5,5 3,3 2 1 6 3 ONO 1026,5 - 0 0,0
21.05.2017 02:00:00 7,6 5,7 3,5 1 1 4 2 O 1026,6 - 0 0,0
21.05.2017 01:00:00 7,9 6,1 3,8 1 1 6 3 NNO 1026,7 - 0 0,0
21.05.2017 00:00:00 8,6 6,2 4,5 1 1 6 4 N 1026,3 - 0 0,0
20.05.2017 23:00:00 10,0 6,4 5,4 2 1 8 4 NNO 1025,9 70 0 0,0
20.05.2017 22:00:00 11,1 7,1 6,3 5 3 10 6 NNO 1025,5 - 0 0,0
20.05.2017 21:00:00 12,6 6,8 8,7 7 4 16 9 N 1024,8 - 31 0,0
20.05.2017 20:00:00 15,5 5,1 14,0 9 5 18 10 NNE 1024,0 70 43 0,0
20.05.2017 19:00:00 15,7 5,0 18,5 14 8 23 12 NNE 1023,4 - 60 0,0
20.05.2017 18:00:00 16,3 5,6 20,9 19 10 26 14 NE 1023,2 - 60 0,0
20.05.2017 17:00:00 16,8 7,9 22,3 14 7 23 13 NE 1023,1 70 55 0,0
20.05.2017 16:00:00 15,1 5,9 16,4 16 9 26 14 NE 1023,0 - 41 0,0
20.05.2017 15:00:00 15,9 5,2 25,9 7 4 17 9 ENE 1022,7 - 60 0,0
20.05.2017 14:00:00 14,0 6,0 22,2 6 4 16 9 NNE 1023,0 45 53 0,0
20.05.2017 13:00:00 12,6 9,0 15,9 12 6 21 11 NE 1023,8 - 20 0,2
20.05.2017 12:00:00 13,4 7,5 22,2 4 2 17 9 ENE 1023,5 - 31 0,0
20.05.2017 11:00:00 11,9 7,8 23,3 4 2 13 7 E 1023,5 25 12 0,0
20.05.2017 10:00:00 11,9 8,8 15,8 3 2 9 5 NE 1023,3 - 4 0,0
20.05.2017 09:00:00 9,5 7,8 11,4 3 1 8 4 NE 1023,4 - 0 0,0
20.05.2017 08:00:00 8,1 6,8 9,3 4 2 6 4 N 1023,1 30 0 0,0
20.05.2017 07:00:00 7,6 6,6 7,6 2 1 7 4 O 1022,5 - 0 0,0
20.05.2017 06:00:00 5,8 5,4 4,0 3 1 4 2 E 1022,1 - 0 0,0
20.05.2017 05:00:00 5,2 4,6 2,3 4 2 7 4 O 1022,0 - 0 0,0
20.05.2017 04:00:00 5,3 5,0 2,8 2 1 5 3 NO 1022,1 - 0 0,0
20.05.2017 03:00:00 5,9 5,5 2,5 3 1 5 3 NO 1022,1 - 0 0,0
20.05.2017 02:00:00 6,5 5,9 2,8 3 2 5 3 N 1021,8 - 0 0,0
20.05.2017 01:00:00 7,0 6,4 3,8 3 1 4 2 NNE 1021,7 - 0 0,0
20.05.2017 00:00:00 8,2 6,7 4,8 2 1 9 5 NO 1021,3 - 0 0,0
19.05.2017 23:00:00 8,5 7,2 4,8 4 2 8 4 N 1021,0 75 0 0,0
19.05.2017 22:00:00 9,5 7,7 5,7 4 2 13 7 N 1020,4 - 0 0,0
19.05.2017 21:00:00 10,7 8,1 7,0 8 4 12 6 NNE 1019,4 - 31 0,0
19.05.2017 20:00:00 12,9 7,5 14,5 7 4 11 6 NNE 1018,8 75 54 0,0
19.05.2017 19:00:00 13,8 6,1 20,0 4 2 17 9 N 1018,4 - 38 0,0
19.05.2017 18:00:00 13,4 5,6 19,4 4 2 22 12 E 1018,5 - 41 0,0
19.05.2017 17:00:00 13,4 6,3 15,8 14 7 24 13 SO 1018,5 75 7 0,0
19.05.2017 16:00:00 12,8 7,0 20,6 11 6 29 16 S 1018,6 - 15 0,0
19.05.2017 15:00:00 13,4 6,6 19,1 18 10 29 15 SO 1018,5 - 3 0,0
19.05.2017 14:00:00 10,9 6,9 13,3 18 10 31 17 SSO 1019,0 25 0 0,0
19.05.2017 13:00:00 10,2 7,5 12,5 20 11 33 18 SSO 1018,9 - 0 0,1
19.05.2017 12:00:00 8,8 6,8 9,4 16 8 27 14 SSO 1018,9 - 0 0,7
19.05.2017 11:00:00 8,7 7,4 8,8 16 9 26 14 SSO 1018,2 9 0 2,1
19.05.2017 10:00:00 8,6 7,6 8,4 20 11 25 14 SSO 1017,2 - 0 4,7
19.05.2017 09:00:00 9,8 8,6 9,5 10 6 20 11 SSO 1015,8 - 0 4,2
19.05.2017 08:00:00 10,2 9,1 9,8 13 7 19 10 S 1014,4 12 0 1,4
19.05.2017 07:00:00 11,5 9,4 10,5 4 2 11 6 SSO 1012,9 - 0 0,7
19.05.2017 06:00:00 10,7 8,9 10,1 4 2 16 8 O 1012,6 - 0 1,2
19.05.2017 05:00:00 12,9 9,8 11,8 4 2 9 5 N 1012,1 - 0 0,0
19.05.2017 04:00:00 12,8 11,2 12,2 4 2 10 5 NNE 1011,9 - 0 0,0
19.05.2017 03:00:00 14,5 12,2 13,2 6 3 10 5 NE 1011,7 - 0 0,0
19.05.2017 02:00:00 15,1 14,2 14,3 5 3 10 5 ONO 1011,6 - 0 0,0
19.05.2017 01:00:00 15,6 14,1 14,0 3 2 14 7 NO 1011,6 - 0 0,0
19.05.2017 00:00:00 15,9 14,5 14,8 5 3 10 5 SO 1011,9 - 0 0,0
18.05.2017 23:00:00 16,0 15,3 15,5 6 4 19 11 OSO 1012,0 8 0 1,4
18.05.2017 22:00:00 17,4 15,1 15,8 7 4 16 8 O 1011,2 - 0 0,2
18.05.2017 21:00:00 17,4 15,6 16,1 6 3 10 5 ONO 1010,8 - 0 0,0
18.05.2017 20:00:00 17,4 16,1 16,3 3 2 8 4 SSO 1011,0 30 0 0,1
18.05.2017 19:00:00 17,7 14,6 16,5 4 2 19 10 NNO 1011,3 - 0 1,2
18.05.2017 18:00:00 18,8 13,3 17,9 1 1 12 7 N 1010,7 - 0 0,0
18.05.2017 17:00:00 21,9 10,9 22,3 9 5 19 11 NNE 1010,4 40 1 0,0
18.05.2017 16:00:00 22,2 9,0 24,7 16 8 23 12 NE 1010,9 - 16 0,0
18.05.2017 15:00:00 22,2 10,4 28,9 13 7 21 12 NNE 1011,5 - 50 0,0
18.05.2017 14:00:00 21,7 10,4 28,5 12 6 22 12 ENE 1012,2 35 40 0,0
18.05.2017 13:00:00 20,6 9,3 24,8 10 5 18 10 ENE 1013,1 - 11 0,0
18.05.2017 12:00:00 20,5 11,3 27,7 4 2 12 6 ENE 1013,8 - 33 0,0
18.05.2017 11:00:00 19,5 10,3 22,1 4 2 10 5 NO 1014,6 30 0 0,0
18.05.2017 10:00:00 19,3 11,5 22,0 4 2 9 5 NNE 1014,8 - 0 0,0
18.05.2017 09:00:00 18,0 10,7 18,0 5 3 8 5 NNE 1015,4 - 0 0,0
18.05.2017 08:00:00 17,0 11,1 16,1 3 2 5 3 N 1015,5 25 0 0,0
18.05.2017 07:00:00 17,4 10,1 15,5 4 2 9 5 NO 1015,4 - 0 0,0
18.05.2017 06:00:00 17,6 9,7 15,2 3 2 15 8 NNO 1015,4 - 0 0,0
18.05.2017 05:00:00 18,8 8,6 16,4 11 6 21 11 SSO 1015,3 - 0 0,0
18.05.2017 04:00:00 19,0 8,8 16,3 12 7 22 12 S 1015,4 - 0 0,0
18.05.2017 03:00:00 19,7 8,8 17,3 14 8 28 15 S 1015,2 - 0 0,0
18.05.2017 02:00:00 20,2 8,8 16,9 16 8 23 12 S 1015,4 - 0 0,0
18.05.2017 01:00:00 20,6 9,2 18,4 18 10 27 14 SSO 1015,4 - 0 0,0
18.05.2017 00:00:00 21,5 8,6 18,6 19 10 28 15 SSO 1015,2 - 0 0,0
17.05.2017 23:00:00 21,6 9,9 19,4 15 8 24 13 SO 1015,5 45 0 0,0
17.05.2017 22:00:00 22,7 10,3 20,2 17 9 32 17 SSO 1015,3 - 0 0,0
17.05.2017 21:00:00 23,6 11,6 20,4 15 8 32 17 S 1014,8 - 18 0,0
17.05.2017 20:00:00 25,2 11,9 25,3 16 9 35 19 SSO 1014,3 - 60 0,0
17.05.2017 19:00:00 26,4 14,0 27,4 21 11 32 18 SSO 1014,1 - 60 0,0
17.05.2017 18:00:00 27,6 12,8 29,7 14 8 23 12 SO 1014,1 - 60 0,0
17.05.2017 17:00:00 28,0 12,8 32,2 13 7 28 15 SO 1014,8 50 60 0,0
17.05.2017 16:00:00 26,5 11,8 32,4 14 8 27 15 SO 1015,8 - 60 0,0

tt = Temperatura
td = dewpoint
tt 5cm = Temperatura 5cm
ff = velocità del vento
fx = gusts
dd = direzione del vento
ppp = reduced air pressure
vv = visibility
sd = ore di luce
rr = precipitazioni

Stazioni seguenti

WeatherPro
AMSI
MeteoEarth